Year,Month,Day,Hour,Minute,Value (Times are PST for windspeed in km/hr)
2012,04,11,12,26,5.40
2012,04,11,12,27,3.90
2012,04,11,12,28,0.60
2012,04,11,12,29,0.70
2012,04,11,12,30,2.20
2012,04,11,12,31,0.40
2012,04,11,12,32,2.80
2012,04,11,12,33,2.30
2012,04,11,12,34,1.40
2012,04,11,12,35,3.70
2012,04,11,12,36,2.40
2012,04,11,12,37,0.00
2012,04,11,12,38,0.20
2012,04,11,12,39,1.40
2012,04,11,12,40,0.30
2012,04,11,12,41,0.30
2012,04,11,12,42,0.80
2012,04,11,12,43,0.80
2012,04,11,12,44,0.40
2012,04,11,12,45,1.40
2012,04,11,12,46,3.00
2012,04,11,12,47,1.50
2012,04,11,12,48,1.40
2012,04,11,12,49,0.60
2012,04,11,12,50,0.20
2012,04,11,12,51,0.00
2012,04,11,12,52,0.50
2012,04,11,12,53,0.00
2012,04,11,12,54,0.00
2012,04,11,12,55,0.00
2012,04,11,12,56,0.00
2012,04,11,12,57,0.00
2012,04,11,12,58,0.00
2012,04,11,12,59,0.00
2012,04,11,13,00,0.00
2012,04,11,13,01,0.00
2012,04,11,13,02,0.30
2012,04,11,13,03,1.90
2012,04,11,13,04,0.30
2012,04,11,13,05,0.70
2012,04,11,13,06,0.60
2012,04,11,13,07,0.30
2012,04,11,13,08,0.70
2012,04,11,13,09,0.00
2012,04,11,13,10,1.40
2012,04,11,13,11,0.00
2012,04,11,13,12,0.00
2012,04,11,13,13,0.30
2012,04,11,13,14,0.10
2012,04,11,13,15,0.00
2012,04,11,13,16,0.00
2012,04,11,13,17,0.10
2012,04,11,13,18,0.00
2012,04,11,13,19,0.00
2012,04,11,13,20,0.00
2012,04,11,13,21,0.00
2012,04,11,13,22,0.00
2012,04,11,13,23,0.90
2012,04,11,13,24,3.20
2012,04,11,13,25,0.60
2012,04,11,13,26,0.80
2012,04,11,13,27,1.30
2012,04,11,13,28,0.00
2012,04,11,13,29,0.20
2012,04,11,13,30,0.00
2012,04,11,13,31,0.00
2012,04,11,13,32,0.00
2012,04,11,13,33,0.10
2012,04,11,13,34,1.50
2012,04,11,13,35,1.80
2012,04,11,13,36,1.50
2012,04,11,13,37,0.00
2012,04,11,13,38,0.10
2012,04,11,13,39,0.10
2012,04,11,13,40,0.00
2012,04,11,13,41,0.00
2012,04,11,13,42,0.00
2012,04,11,13,43,0.00
2012,04,11,13,44,1.90
2012,04,11,13,45,1.00
2012,04,11,13,46,1.40
2012,04,11,13,47,1.80
2012,04,11,13,48,0.30
2012,04,11,13,49,0.00
2012,04,11,13,50,3.00
2012,04,11,13,51,0.60
2012,04,11,13,52,0.00
2012,04,11,13,53,2.80
2012,04,11,13,54,3.70
2012,04,11,13,55,1.80
2012,04,11,13,56,1.70
2012,04,11,13,57,3.60
2012,04,11,13,58,1.00
2012,04,11,13,59,0.00
2012,04,11,14,00,2.10
2012,04,11,14,01,5.00
2012,04,11,14,02,5.60
2012,04,11,14,03,4.00
2012,04,11,14,04,4.90
2012,04,11,14,05,2.40
2012,04,11,14,06,3.30
2012,04,11,14,07,2.80
2012,04,11,14,08,2.80
2012,04,11,14,09,2.20
2012,04,11,14,10,4.70
2012,04,11,14,11,4.40
2012,04,11,14,12,3.80
2012,04,11,14,13,3.30
2012,04,11,14,14,1.20
2012,04,11,14,15,1.80
2012,04,11,14,16,4.00
2012,04,11,14,17,5.30
2012,04,11,14,18,2.90
2012,04,11,14,19,2.30
2012,04,11,14,20,4.40
2012,04,11,14,21,3.30
2012,04,11,14,22,1.00
2012,04,11,14,23,0.70
2012,04,11,14,24,1.90
2012,04,11,14,25,3.10
2012,04,11,14,26,4.90
2012,04,11,14,27,4.70
2012,04,11,14,28,3.50
2012,04,11,14,29,3.70
2012,04,11,14,30,5.20
2012,04,11,14,31,4.10
2012,04,11,14,32,5.20
2012,04,11,14,33,5.60
2012,04,11,14,34,5.50
2012,04,11,14,35,6.20
2012,04,11,14,36,3.30
2012,04,11,14,37,3.10
2012,04,11,14,38,2.80
2012,04,11,14,39,3.00
2012,04,11,14,40,2.10
2012,04,11,14,41,3.30
2012,04,11,14,42,5.10
2012,04,11,14,43,4.90
2012,04,11,14,44,4.80
2012,04,11,14,45,4.70
2012,04,11,14,46,1.80
2012,04,11,14,47,1.70
2012,04,11,14,48,0.60
2012,04,11,14,49,4.30
2012,04,11,14,50,2.80
2012,04,11,14,51,3.40
2012,04,11,14,52,5.80
2012,04,11,14,53,4.30
2012,04,11,14,54,2.80
2012,04,11,14,55,3.10
2012,04,11,14,56,2.20
2012,04,11,14,57,3.60
2012,04,11,14,58,2.50
2012,04,11,14,59,3.60
2012,04,11,15,00,2.70
2012,04,11,15,01,3.80
2012,04,11,15,02,3.50
2012,04,11,15,03,3.70
2012,04,11,15,04,3.80
2012,04,11,15,05,2.60
2012,04,11,15,06,3.50
2012,04,11,15,07,0.80
2012,04,11,15,08,3.60
2012,04,11,15,09,5.10
2012,04,11,15,10,4.40
2012,04,11,15,11,3.30
2012,04,11,15,12,4.30
2012,04,11,15,13,3.90
2012,04,11,15,14,4.10
2012,04,11,15,15,5.80
2012,04,11,15,16,6.40
2012,04,11,15,17,4.10
2012,04,11,15,18,3.40
2012,04,11,15,19,4.80
2012,04,11,15,20,5.40
2012,04,11,15,21,3.70
2012,04,11,15,22,4.20
2012,04,11,15,23,5.80
2012,04,11,15,24,2.70
2012,04,11,15,25,2.70
2012,04,11,15,26,3.60
2012,04,11,15,27,1.90
2012,04,11,15,28,4.70
2012,04,11,15,29,3.30
2012,04,11,15,30,0.90
2012,04,11,15,31,0.60
2012,04,11,15,32,1.90
2012,04,11,15,33,4.80
2012,04,11,15,34,7.30
2012,04,11,15,35,3.60
2012,04,11,15,36,4.40
2012,04,11,15,37,4.30
2012,04,11,15,38,4.50
2012,04,11,15,39,4.50
2012,04,11,15,40,5.40
2012,04,11,15,41,6.60
2012,04,11,15,42,7.40
2012,04,11,15,43,4.60
2012,04,11,15,44,3.20
2012,04,11,15,45,0.60
2012,04,11,15,46,2.20
2012,04,11,15,47,1.40
2012,04,11,15,48,1.00
2012,04,11,15,49,1.90
2012,04,11,15,50,4.40
2012,04,11,15,51,4.10
2012,04,11,15,52,2.20
2012,04,11,15,53,3.20
2012,04,11,15,54,3.90
2012,04,11,15,55,3.90
2012,04,11,15,56,2.20
2012,04,11,15,57,2.70
2012,04,11,15,58,3.60
2012,04,11,15,59,4.00
2012,04,11,16,00,3.70
2012,04,11,16,01,3.50
2012,04,11,16,02,2.70
2012,04,11,16,03,2.30
2012,04,11,16,04,0.90
2012,04,11,16,05,0.20
2012,04,11,16,06,4.90
2012,04,11,16,07,8.60
2012,04,11,16,08,3.10
2012,04,11,16,09,4.10
2012,04,11,16,10,6.20
2012,04,11,16,11,6.60
2012,04,11,16,12,5.10
2012,04,11,16,13,1.80
2012,04,11,16,14,1.90
2012,04,11,16,15,3.80
2012,04,11,16,16,4.00
2012,04,11,16,17,4.50
2012,04,11,16,18,1.80
2012,04,11,16,19,3.70
2012,04,11,16,20,0.10
2012,04,11,16,21,1.90
2012,04,11,16,22,1.40
2012,04,11,16,23,0.00
2012,04,11,16,24,0.00
2012,04,11,16,25,0.60
2012,04,11,16,26,1.40
2012,04,11,16,27,2.80
2012,04,11,16,28,2.80
2012,04,11,16,29,4.40
2012,04,11,16,30,3.30
2012,04,11,16,31,5.30
2012,04,11,16,32,2.20
2012,04,11,16,33,3.50
2012,04,11,16,34,7.50
2012,04,11,16,35,5.40
2012,04,11,16,36,6.70
2012,04,11,16,37,4.00
2012,04,11,16,38,5.80
2012,04,11,16,39,3.00
2012,04,11,16,40,1.80
2012,04,11,16,41,3.00
2012,04,11,16,42,5.40
2012,04,11,16,43,4.10
2012,04,11,16,44,5.60
2012,04,11,16,45,3.80
2012,04,11,16,46,4.20
2012,04,11,16,47,5.10
2012,04,11,16,48,4.30
2012,04,11,16,49,1.70
2012,04,11,16,50,9.90
2012,04,11,16,51,8.20
2012,04,11,16,52,8.50
2012,04,11,16,53,6.30
2012,04,11,16,54,3.40
2012,04,11,16,55,6.20
2012,04,11,16,56,11.60
2012,04,11,16,57,9.00
2012,04,11,16,58,9.80
2012,04,11,16,59,8.60
2012,04,11,17,00,8.60
2012,04,11,17,01,6.30
2012,04,11,17,02,6.90
2012,04,11,17,03,10.80
2012,04,11,17,04,11.80
2012,04,11,17,05,8.30
2012,04,11,17,06,12.40
2012,04,11,17,07,10.00
2012,04,11,17,08,10.50
2012,04,11,17,09,7.70
2012,04,11,17,10,5.50
2012,04,11,17,11,6.10
2012,04,11,17,12,8.10
2012,04,11,17,13,10.80
2012,04,11,17,14,8.60
2012,04,11,17,15,6.40
2012,04,11,17,16,10.60
2012,04,11,17,17,7.50
2012,04,11,17,18,8.40
2012,04,11,17,19,6.90
2012,04,11,17,20,7.80
2012,04,11,17,21,6.80
2012,04,11,17,22,5.30
2012,04,11,17,23,6.20
2012,04,11,17,24,8.10
2012,04,11,17,25,6.70
2012,04,11,17,26,8.20
2012,04,11,17,27,6.80
2012,04,11,17,28,6.30
2012,04,11,17,29,7.90
2012,04,11,17,30,7.10
2012,04,11,17,31,6.70
2012,04,11,17,32,7.70
2012,04,11,17,33,4.90
2012,04,11,17,34,2.10
2012,04,11,17,35,3.90
2012,04,11,17,36,2.30
2012,04,11,17,37,3.10
2012,04,11,17,38,5.90
2012,04,11,17,39,6.30
2012,04,11,17,40,8.70
2012,04,11,17,41,7.20
2012,04,11,17,42,5.60
2012,04,11,17,43,6.20
2012,04,11,17,44,6.50
2012,04,11,17,45,5.00
2012,04,11,17,46,7.40
2012,04,11,17,47,6.50
2012,04,11,17,48,7.00
2012,04,11,17,49,6.10
2012,04,11,17,50,8.00
2012,04,11,17,51,7.00
2012,04,11,17,52,6.70
2012,04,11,17,53,7.10
2012,04,11,17,54,6.10
2012,04,11,17,55,4.70
2012,04,11,17,56,4.80
2012,04,11,17,57,5.20
2012,04,11,17,58,3.90
2012,04,11,17,59,4.70
2012,04,11,18,00,6.20
2012,04,11,18,01,2.60
2012,04,11,18,02,1.80
2012,04,11,18,03,4.00
2012,04,11,18,04,5.40
2012,04,11,18,05,3.40
2012,04,11,18,06,2.60
2012,04,11,18,07,2.80
2012,04,11,18,08,3.70
2012,04,11,18,09,2.00
2012,04,11,18,10,2.90
2012,04,11,18,11,4.70
2012,04,11,18,12,7.60
2012,04,11,18,13,7.90
2012,04,11,18,14,6.50
2012,04,11,18,15,5.60
2012,04,11,18,16,4.80
2012,04,11,18,17,4.80
2012,04,11,18,18,4.80
2012,04,11,18,19,4.80
2012,04,11,18,20,4.80
2012,04,11,18,21,4.80
2012,04,11,18,22,4.80
2012,04,11,18,23,4.80
2012,04,11,18,24,4.80
2012,04,11,18,25,4.80
2012,04,11,18,26,4.80
